Year,Month,Day,Hour,Minute,Value (Times are PST for temperature in C)
2022,04,27,00,00,5.60
2022,04,27,00,01,5.60
2022,04,27,00,02,5.60
2022,04,27,00,03,5.60
2022,04,27,00,04,5.60
2022,04,27,00,05,5.60
2022,04,27,00,06,5.60
2022,04,27,00,07,5.60
2022,04,27,00,08,5.60
2022,04,27,00,09,5.60
2022,04,27,00,10,5.60
2022,04,27,00,11,5.60
2022,04,27,00,12,5.60
2022,04,27,00,13,5.60
2022,04,27,00,14,5.60
2022,04,27,00,15,5.60
2022,04,27,00,16,5.60
2022,04,27,00,17,5.60
2022,04,27,00,18,5.60
2022,04,27,00,19,5.60
2022,04,27,00,20,5.60
2022,04,27,00,21,5.60
2022,04,27,00,22,5.60
2022,04,27,00,23,5.70
2022,04,27,00,24,5.70
2022,04,27,00,25,5.70
2022,04,27,00,26,5.70
2022,04,27,00,27,5.70
2022,04,27,00,28,5.70
2022,04,27,00,29,5.70
2022,04,27,00,30,5.70
2022,04,27,00,31,5.70
2022,04,27,00,32,5.70
2022,04,27,00,33,5.70
2022,04,27,00,34,5.70
2022,04,27,00,35,5.70
2022,04,27,00,36,5.70
2022,04,27,00,37,5.70
2022,04,27,00,38,5.70
2022,04,27,00,39,5.70
2022,04,27,00,40,5.70
2022,04,27,00,41,5.70
2022,04,27,00,42,5.70
2022,04,27,00,43,5.70
2022,04,27,00,44,5.70
2022,04,27,00,45,5.70
2022,04,27,00,46,5.70
2022,04,27,00,47,5.70
2022,04,27,00,48,5.70
2022,04,27,00,49,5.70
2022,04,27,00,50,5.70
2022,04,27,00,51,5.70
2022,04,27,00,52,5.70
2022,04,27,00,53,5.70
2022,04,27,00,54,5.70
2022,04,27,00,55,5.70
2022,04,27,00,56,5.70
2022,04,27,00,57,5.70
2022,04,27,00,58,5.60
2022,04,27,00,59,5.60
2022,04,27,01,00,5.60
2022,04,27,01,01,5.60
2022,04,27,01,02,5.60
2022,04,27,01,03,5.60
2022,04,27,01,04,5.60
2022,04,27,01,05,5.50
2022,04,27,01,06,5.50
2022,04,27,01,07,5.50
2022,04,27,01,08,5.50
2022,04,27,01,09,5.40
2022,04,27,01,10,5.40
2022,04,27,01,11,5.40
2022,04,27,01,12,5.40
2022,04,27,01,13,5.40
2022,04,27,01,14,5.40
2022,04,27,01,15,5.40
2022,04,27,01,16,5.40
2022,04,27,01,17,5.30
2022,04,27,01,18,5.30
2022,04,27,01,19,5.30
2022,04,27,01,20,5.30
2022,04,27,01,21,5.30
2022,04,27,01,22,5.30
2022,04,27,01,23,5.30
2022,04,27,01,24,5.30
2022,04,27,01,25,5.30
2022,04,27,01,26,5.30
2022,04,27,01,27,5.20
2022,04,27,01,28,5.20
2022,04,27,01,29,5.20
2022,04,27,01,30,5.20
2022,04,27,01,31,5.20
2022,04,27,01,32,5.20
2022,04,27,01,33,5.20
2022,04,27,01,34,5.10
2022,04,27,01,35,5.10
2022,04,27,01,36,5.10
2022,04,27,01,37,5.10
2022,04,27,01,38,5.10
2022,04,27,01,39,5.10
2022,04,27,01,40,5.10
2022,04,27,01,41,5.10
2022,04,27,01,42,5.10
2022,04,27,01,43,5.00
2022,04,27,01,44,5.00
2022,04,27,01,45,5.00
2022,04,27,01,46,5.00
2022,04,27,01,47,5.00
2022,04,27,01,48,5.00
2022,04,27,01,49,5.00
2022,04,27,01,50,5.00
2022,04,27,01,51,5.00
2022,04,27,01,52,5.00
2022,04,27,01,53,5.00
2022,04,27,01,54,4.90
2022,04,27,01,55,4.90
2022,04,27,01,56,4.90
2022,04,27,01,57,4.90
2022,04,27,01,58,4.90
2022,04,27,01,59,4.80
2022,04,27,02,00,4.80
2022,04,27,02,01,4.80
2022,04,27,02,02,4.80
2022,04,27,02,03,4.80
2022,04,27,02,04,4.80
2022,04,27,02,05,4.80
2022,04,27,02,06,4.70
2022,04,27,02,07,4.70
2022,04,27,02,08,4.70
2022,04,27,02,09,4.70
2022,04,27,02,10,4.60
2022,04,27,02,11,4.60
2022,04,27,02,12,4.60
2022,04,27,02,13,4.60
2022,04,27,02,14,4.60
2022,04,27,02,15,4.50
2022,04,27,02,16,4.50
2022,04,27,02,17,4.40
2022,04,27,02,18,4.40
2022,04,27,02,19,4.40
2022,04,27,02,20,4.40
2022,04,27,02,21,4.40
2022,04,27,02,22,4.40
2022,04,27,02,23,4.30
2022,04,27,02,24,4.30
2022,04,27,02,25,4.30
2022,04,27,02,26,4.30
2022,04,27,02,27,4.30
2022,04,27,02,28,4.30
2022,04,27,02,29,4.30
2022,04,27,02,30,4.30
2022,04,27,02,31,4.30
2022,04,27,02,32,4.30
2022,04,27,02,33,4.30
2022,04,27,02,34,4.20
2022,04,27,02,35,4.30
2022,04,27,02,36,4.20
2022,04,27,02,37,4.20
2022,04,27,02,38,4.30
2022,04,27,02,39,4.30
2022,04,27,02,40,4.30
2022,04,27,02,41,4.30
2022,04,27,02,42,4.30
2022,04,27,02,43,4.30
2022,04,27,02,44,4.20
2022,04,27,02,45,4.20
2022,04,27,02,46,4.20
2022,04,27,02,47,4.20
2022,04,27,02,48,4.20
2022,04,27,02,49,4.20
2022,04,27,02,50,4.20
2022,04,27,02,51,4.10
2022,04,27,02,52,4.10
2022,04,27,02,53,4.10
2022,04,27,02,54,4.10
2022,04,27,02,55,4.10
2022,04,27,02,56,4.10
2022,04,27,02,57,4.10
2022,04,27,02,58,4.10
2022,04,27,02,59,4.10
2022,04,27,03,00,4.10
2022,04,27,03,01,4.10
2022,04,27,03,02,4.10
2022,04,27,03,03,4.10
2022,04,27,03,04,4.10
2022,04,27,03,05,4.00
2022,04,27,03,06,4.10
2022,04,27,03,07,4.00
2022,04,27,03,08,4.00
2022,04,27,03,09,4.00
2022,04,27,03,10,4.00
2022,04,27,03,11,4.00
2022,04,27,03,12,4.00
2022,04,27,03,13,4.00
2022,04,27,03,14,4.00
2022,04,27,03,15,4.00
2022,04,27,03,16,4.00
2022,04,27,03,17,4.10
2022,04,27,03,18,4.10
2022,04,27,03,19,4.10
2022,04,27,03,20,4.10
2022,04,27,03,21,4.10
2022,04,27,03,22,4.10
2022,04,27,03,23,4.10
2022,04,27,03,24,4.10
2022,04,27,03,25,4.10
2022,04,27,03,26,4.10
2022,04,27,03,27,4.10
2022,04,27,03,28,4.20
2022,04,27,03,29,4.20
2022,04,27,03,30,4.20
2022,04,27,03,31,4.20
2022,04,27,03,32,4.20
2022,04,27,03,33,4.20
2022,04,27,03,34,4.30
2022,04,27,03,35,4.20
2022,04,27,03,36,4.30
2022,04,27,03,37,4.30
2022,04,27,03,38,4.30
2022,04,27,03,39,4.30
2022,04,27,03,40,4.30
2022,04,27,03,41,4.30
2022,04,27,03,42,4.30
2022,04,27,03,43,4.30
2022,04,27,03,44,4.30
2022,04,27,03,45,4.30
2022,04,27,03,46,4.30
2022,04,27,03,47,4.30
2022,04,27,03,48,4.30
2022,04,27,03,49,4.30
2022,04,27,03,50,4.30
2022,04,27,03,51,4.30
2022,04,27,03,52,4.20
2022,04,27,03,53,4.20
2022,04,27,03,54,4.20
2022,04,27,03,55,4.20
2022,04,27,03,56,4.20
2022,04,27,03,57,4.20
2022,04,27,03,58,4.20
2022,04,27,03,59,4.20
2022,04,27,04,00,4.20
2022,04,27,04,01,4.20
2022,04,27,04,02,4.20
2022,04,27,04,03,4.10
2022,04,27,04,04,4.10
2022,04,27,04,05,4.10
2022,04,27,04,06,4.10
2022,04,27,04,07,4.10
2022,04,27,04,08,4.10
2022,04,27,04,09,4.10
2022,04,27,04,10,4.10
2022,04,27,04,11,4.10
2022,04,27,04,12,4.10
2022,04,27,04,13,4.00
2022,04,27,04,14,4.00
2022,04,27,04,15,4.00
2022,04,27,04,16,4.00
2022,04,27,04,17,4.00
2022,04,27,04,18,4.00
2022,04,27,04,19,4.00
2022,04,27,04,20,3.90
2022,04,27,04,21,3.90
2022,04,27,04,22,3.90
2022,04,27,04,23,3.90
2022,04,27,04,24,3.90
2022,04,27,04,25,3.80
2022,04,27,04,26,3.80
2022,04,27,04,27,3.80
2022,04,27,04,28,3.80
2022,04,27,04,29,3.80
2022,04,27,04,30,3.80
2022,04,27,04,31,3.80
2022,04,27,04,32,3.80
2022,04,27,04,33,3.80
2022,04,27,04,34,3.80
2022,04,27,04,35,3.70
2022,04,27,04,36,3.70
2022,04,27,04,37,3.70
2022,04,27,04,38,3.70
2022,04,27,04,39,3.60
2022,04,27,04,40,3.60
2022,04,27,04,41,3.50
2022,04,27,04,42,3.50
2022,04,27,04,43,3.50
2022,04,27,04,44,3.40
2022,04,27,04,45,3.40
2022,04,27,04,46,3.40
2022,04,27,04,47,3.30
2022,04,27,04,48,3.30
2022,04,27,04,49,3.30
2022,04,27,04,50,3.30
2022,04,27,04,51,3.30
2022,04,27,04,52,3.20
2022,04,27,04,53,3.20
2022,04,27,04,54,3.20
2022,04,27,04,55,3.20
2022,04,27,04,56,3.20
2022,04,27,04,57,3.10
2022,04,27,04,58,3.10
2022,04,27,04,59,3.10
2022,04,27,05,00,3.10
2022,04,27,05,01,3.10
2022,04,27,05,02,3.00
2022,04,27,05,03,3.00
2022,04,27,05,04,3.00
2022,04,27,05,05,3.00
2022,04,27,05,06,2.90
2022,04,27,05,07,2.90
2022,04,27,05,08,2.90
2022,04,27,05,09,2.80
2022,04,27,05,10,2.80
2022,04,27,05,11,2.80
2022,04,27,05,12,2.80
2022,04,27,05,13,2.80
2022,04,27,05,14,2.70
2022,04,27,05,15,2.70
2022,04,27,05,16,2.70
2022,04,27,05,17,2.70
2022,04,27,05,18,2.70
2022,04,27,05,19,2.70
2022,04,27,05,20,2.60
2022,04,27,05,21,2.60
2022,04,27,05,22,2.60
2022,04,27,05,23,2.60
2022,04,27,05,24,2.50
2022,04,27,05,25,2.50
2022,04,27,05,26,2.50
2022,04,27,05,27,2.40
2022,04,27,05,28,2.40
2022,04,27,05,29,2.40
2022,04,27,05,30,2.40
2022,04,27,05,31,2.40
2022,04,27,05,32,2.40
2022,04,27,05,33,2.40
2022,04,27,05,34,2.30
2022,04,27,05,35,2.30
2022,04,27,05,36,2.30
2022,04,27,05,37,2.30
2022,04,27,05,38,2.30
2022,04,27,05,39,2.30
2022,04,27,05,40,2.30
2022,04,27,05,41,2.20
2022,04,27,05,42,2.20
2022,04,27,05,43,2.20
2022,04,27,05,44,2.20
2022,04,27,05,45,2.20
2022,04,27,05,46,2.20
2022,04,27,05,47,2.20
2022,04,27,05,48,2.20
2022,04,27,05,49,2.20
2022,04,27,05,50,2.20
2022,04,27,05,51,2.20
2022,04,27,05,52,2.30
2022,04,27,05,53,2.20
2022,04,27,05,54,2.30
2022,04,27,05,55,2.20
2022,04,27,05,56,2.20
2022,04,27,05,57,2.20
2022,04,27,05,58,2.20
2022,04,27,05,59,2.20
2022,04,27,06,00,2.20
2022,04,27,06,01,2.20
2022,04,27,06,02,2.20
2022,04,27,06,03,2.20
2022,04,27,06,04,2.20
2022,04,27,06,05,2.20
2022,04,27,06,06,2.20
2022,04,27,06,07,2.20
2022,04,27,06,08,2.20
2022,04,27,06,09,2.20
2022,04,27,06,10,2.20
2022,04,27,06,11,2.20
2022,04,27,06,12,2.20
2022,04,27,06,13,2.20
2022,04,27,06,14,2.30
2022,04,27,06,15,2.30
2022,04,27,06,16,2.30
2022,04,27,06,17,2.30
2022,04,27,06,18,2.30
2022,04,27,06,19,2.30
2022,04,27,06,20,2.30
2022,04,27,06,21,2.30
2022,04,27,06,22,2.30
2022,04,27,06,23,2.30
2022,04,27,06,24,2.30
2022,04,27,06,25,2.20
2022,04,27,06,26,2.20
2022,04,27,06,27,2.20
2022,04,27,06,28,2.20
2022,04,27,06,29,2.10
2022,04,27,06,30,2.10
2022,04,27,06,31,2.10
2022,04,27,06,32,2.10
2022,04,27,06,33,2.10
2022,04,27,06,34,2.10
2022,04,27,06,35,2.10
2022,04,27,06,36,2.10
2022,04,27,06,37,2.10
2022,04,27,06,38,2.20
2022,04,27,06,39,2.10
2022,04,27,06,40,2.20
2022,04,27,06,41,2.20
2022,04,27,06,42,2.20
2022,04,27,06,43,2.20
2022,04,27,06,44,2.20
2022,04,27,06,45,2.20
2022,04,27,06,46,2.20
2022,04,27,06,47,2.20
2022,04,27,06,48,2.30
2022,04,27,06,49,2.30
2022,04,27,06,50,2.30
2022,04,27,06,51,2.40
2022,04,27,06,52,2.40
2022,04,27,06,53,2.40
2022,04,27,06,54,2.50
2022,04,27,06,55,2.50
2022,04,27,06,56,2.50
2022,04,27,06,57,2.60
2022,04,27,06,58,2.60
2022,04,27,06,59,2.60
2022,04,27,07,00,2.70
2022,04,27,07,01,2.70
2022,04,27,07,02,2.70
2022,04,27,07,03,2.80
2022,04,27,07,04,2.80
2022,04,27,07,05,2.90
2022,04,27,07,06,2.90
2022,04,27,07,07,3.00
2022,04,27,07,08,3.00
2022,04,27,07,09,3.10
2022,04,27,07,10,3.10
2022,04,27,07,11,3.20
2022,04,27,07,12,3.20
2022,04,27,07,13,3.30
2022,04,27,07,14,3.30
2022,04,27,07,15,3.40
2022,04,27,07,16,3.40
2022,04,27,07,17,3.40
2022,04,27,07,18,3.50
2022,04,27,07,19,3.50
2022,04,27,07,20,3.60
2022,04,27,07,21,3.60
2022,04,27,07,22,3.60
2022,04,27,07,23,3.70
2022,04,27,07,24,3.70
2022,04,27,07,25,3.80
2022,04,27,07,26,3.80
2022,04,27,07,27,3.80
2022,04,27,07,28,3.90
2022,04,27,07,29,3.90
2022,04,27,07,30,3.90
2022,04,27,07,31,3.90
2022,04,27,07,32,3.90
2022,04,27,07,33,3.90
2022,04,27,07,34,3.90
2022,04,27,07,35,3.90
2022,04,27,07,36,3.90
2022,04,27,07,37,3.90
2022,04,27,07,38,3.90
2022,04,27,07,39,3.90
2022,04,27,07,40,3.90
2022,04,27,07,41,3.80
2022,04,27,07,42,3.80
2022,04,27,07,43,3.80
2022,04,27,07,44,3.80
2022,04,27,07,45,3.80
2022,04,27,07,46,3.90
2022,04,27,07,47,3.90
2022,04,27,07,48,3.90
2022,04,27,07,49,3.90
2022,04,27,07,50,3.90
2022,04,27,07,51,3.90
2022,04,27,07,52,3.90
2022,04,27,07,53,3.90
2022,04,27,07,54,3.90
2022,04,27,07,55,4.00
2022,04,27,07,56,4.00
2022,04,27,07,57,4.00
2022,04,27,07,58,4.10
2022,04,27,07,59,4.10
2022,04,27,08,00,4.10
2022,04,27,08,01,4.10
2022,04,27,08,02,4.10
2022,04,27,08,03,4.10
2022,04,27,08,04,4.10
2022,04,27,08,05,4.20
2022,04,27,08,06,4.20
2022,04,27,08,07,4.20
2022,04,27,08,08,4.30
2022,04,27,08,09,4.30
2022,04,27,08,10,4.30
2022,04,27,08,11,4.30
2022,04,27,08,12,4.30
2022,04,27,08,13,4.40
2022,04,27,08,14,4.40
2022,04,27,08,15,4.40
2022,04,27,08,16,4.40
2022,04,27,08,17,4.40
2022,04,27,08,18,4.40
2022,04,27,08,19,4.40
2022,04,27,08,20,4.40
2022,04,27,08,21,4.50
2022,04,27,08,22,4.50
2022,04,27,08,23,4.50
2022,04,27,08,24,4.50
2022,04,27,08,25,4.50
2022,04,27,08,26,4.60
2022,04,27,08,27,4.60
2022,04,27,08,28,4.60
2022,04,27,08,29,4.60
2022,04,27,08,30,4.60
2022,04,27,08,31,4.70
2022,04,27,08,32,4.70
2022,04,27,08,33,4.70
2022,04,27,08,34,4.70
2022,04,27,08,35,4.70
2022,04,27,08,36,4.70
2022,04,27,08,37,4.70
2022,04,27,08,38,4.80
2022,04,27,08,39,4.80
2022,04,27,08,40,4.80
2022,04,27,08,41,4.80
2022,04,27,08,42,4.80
2022,04,27,08,43,4.90
2022,04,27,08,44,4.90
2022,04,27,08,45,4.90
2022,04,27,08,46,5.00
2022,04,27,08,47,5.00
2022,04,27,08,48,5.00
2022,04,27,08,49,5.10
2022,04,27,08,50,5.10
2022,04,27,08,51,5.20
2022,04,27,08,52,5.20
2022,04,27,08,53,5.20
2022,04,27,08,54,5.30
2022,04,27,08,55,5.30
2022,04,27,08,56,5.30
2022,04,27,08,57,5.30
2022,04,27,08,58,5.30
2022,04,27,08,59,5.30
2022,04,27,09,00,5.30
2022,04,27,09,01,5.30
2022,04,27,09,02,5.30
2022,04,27,09,03,5.40
2022,04,27,09,04,5.40
2022,04,27,09,05,5.40
2022,04,27,09,06,5.40
2022,04,27,09,07,5.40
2022,04,27,09,08,5.50
2022,04,27,09,09,5.50
2022,04,27,09,10,5.50
2022,04,27,09,11,5.50
2022,04,27,09,12,5.50
2022,04,27,09,13,5.50
2022,04,27,09,14,5.60
2022,04,27,09,15,5.60
2022,04,27,09,16,5.60
2022,04,27,09,17,5.70
2022,04,27,09,18,5.80
2022,04,27,09,19,5.80
2022,04,27,09,20,5.80
2022,04,27,09,21,5.80
2022,04,27,09,22,5.80
2022,04,27,09,23,5.80
2022,04,27,09,24,5.80
2022,04,27,09,25,5.70
2022,04,27,09,26,5.70
2022,04,27,09,27,5.70
2022,04,27,09,28,5.80
2022,04,27,09,29,5.80
2022,04,27,09,30,5.80
2022,04,27,09,31,5.80
2022,04,27,09,32,5.80
2022,04,27,09,33,5.80
2022,04,27,09,34,5.80
2022,04,27,09,35,5.90
2022,04,27,09,36,5.90
2022,04,27,09,37,5.90
2022,04,27,09,38,5.90
2022,04,27,09,39,6.00
2022,04,27,09,40,6.00
2022,04,27,09,41,6.10
2022,04,27,09,42,6.20
2022,04,27,09,43,6.20
2022,04,27,09,44,6.20
2022,04,27,09,45,6.20
2022,04,27,09,46,6.20
2022,04,27,09,47,6.20
2022,04,27,09,48,6.20
2022,04,27,09,49,6.20
2022,04,27,09,50,6.20
2022,04,27,09,51,6.20
2022,04,27,09,52,6.20
2022,04,27,09,53,6.30
2022,04,27,09,54,6.30
2022,04,27,09,55,6.30
2022,04,27,09,56,6.40
2022,04,27,09,57,6.50
2022,04,27,09,58,6.50
2022,04,27,09,59,6.60
2022,04,27,10,00,6.60
2022,04,27,10,01,6.70
2022,04,27,10,02,6.70
2022,04,27,10,03,6.60
2022,04,27,10,04,6.60
2022,04,27,10,05,6.60
2022,04,27,10,06,6.70
2022,04,27,10,07,6.60
2022,04,27,10,08,6.60
2022,04,27,10,09,6.60
2022,04,27,10,10,6.60
2022,04,27,10,11,6.60
2022,04,27,10,12,6.70
2022,04,27,10,13,6.70
2022,04,27,10,14,6.60
2022,04,27,10,15,6.60
2022,04,27,10,16,6.70
2022,04,27,10,17,6.70
2022,04,27,10,18,6.70
2022,04,27,10,19,6.70
2022,04,27,10,20,6.60
2022,04,27,10,21,6.60
2022,04,27,10,22,6.60
2022,04,27,10,23,6.60
2022,04,27,10,24,6.60
2022,04,27,10,25,6.70
2022,04,27,10,26,6.70
2022,04,27,10,27,6.70
2022,04,27,10,28,6.70
2022,04,27,10,29,6.80
2022,04,27,10,30,6.80
2022,04,27,10,31,6.80
2022,04,27,10,32,6.80
2022,04,27,10,33,6.80
2022,04,27,10,34,6.80
2022,04,27,10,35,6.90
2022,04,27,10,36,6.90
2022,04,27,10,37,6.90
2022,04,27,10,38,6.90
2022,04,27,10,39,7.00
2022,04,27,10,40,6.90
2022,04,27,10,41,6.90
2022,04,27,10,42,6.90
2022,04,27,10,43,6.90
2022,04,27,10,44,7.00
2022,04,27,10,45,7.10
2022,04,27,10,46,7.20
2022,04,27,10,47,7.20
2022,04,27,10,48,7.30
2022,04,27,10,49,7.40
2022,04,27,10,50,7.50
2022,04,27,10,51,7.60
2022,04,27,10,52,7.60
2022,04,27,10,53,7.60
2022,04,27,10,54,7.70
2022,04,27,10,55,7.80
2022,04,27,10,56,7.80
2022,04,27,10,57,7.80
2022,04,27,10,58,7.80
2022,04,27,10,59,7.80
2022,04,27,11,00,7.90
2022,04,27,11,01,8.00
2022,04,27,11,02,8.10
2022,04,27,11,03,8.10
2022,04,27,11,04,8.20
2022,04,27,11,05,8.20
2022,04,27,11,06,8.30
2022,04,27,11,07,8.40
2022,04,27,11,08,8.40
2022,04,27,11,09,8.40
2022,04,27,11,10,8.30
2022,04,27,11,11,8.30
2022,04,27,11,12,8.40
2022,04,27,11,13,8.50
2022,04,27,11,14,8.50
2022,04,27,11,15,8.50
2022,04,27,11,16,8.60
2022,04,27,11,17,8.60
2022,04,27,11,18,8.60
2022,04,27,11,19,8.60
2022,04,27,11,20,8.60
2022,04,27,11,21,8.60
2022,04,27,11,22,8.60
2022,04,27,11,23,8.50
2022,04,27,11,24,8.40
2022,04,27,11,25,8.40
2022,04,27,11,26,8.40
2022,04,27,11,27,8.40
2022,04,27,11,28,8.40
2022,04,27,11,29,8.40
2022,04,27,11,30,8.40
2022,04,27,11,31,8.40
2022,04,27,11,32,8.40
2022,04,27,11,33,8.40
2022,04,27,11,34,8.30
2022,04,27,11,35,8.30
2022,04,27,11,36,8.20
2022,04,27,11,37,8.20
2022,04,27,11,38,8.10
2022,04,27,11,39,8.10
2022,04,27,11,40,8.10
2022,04,27,11,41,8.00
2022,04,27,11,42,7.90
2022,04,27,11,43,7.90
2022,04,27,11,44,7.90
2022,04,27,11,45,7.90
2022,04,27,11,46,8.00
2022,04,27,11,47,8.00
2022,04,27,11,48,8.00
2022,04,27,11,49,8.00
2022,04,27,11,50,7.90
2022,04,27,11,51,7.90
2022,04,27,11,52,7.90
2022,04,27,11,53,8.00
2022,04,27,11,54,8.00
2022,04,27,11,55,8.00
2022,04,27,11,56,8.00
2022,04,27,11,57,8.10
2022,04,27,11,58,8.10
2022,04,27,11,59,8.10
2022,04,27,12,00,8.20
2022,04,27,12,01,8.20
2022,04,27,12,02,8.30
2022,04,27,12,03,8.30
2022,04,27,12,04,8.30
2022,04,27,12,05,8.40
2022,04,27,12,06,8.50
2022,04,27,12,07,8.50
2022,04,27,12,08,8.60
2022,04,27,12,09,8.60
2022,04,27,12,10,8.50
2022,04,27,12,11,8.50
2022,04,27,12,12,8.60
2022,04,27,12,13,8.70
2022,04,27,12,14,8.70
2022,04,27,12,15,8.80
2022,04,27,12,16,8.80
2022,04,27,12,17,8.80
2022,04,27,12,18,8.80
2022,04,27,12,19,8.80
2022,04,27,12,20,8.90
2022,04,27,12,21,8.90
2022,04,27,12,22,8.90
2022,04,27,12,23,8.90
2022,04,27,12,24,8.90
2022,04,27,12,25,8.90
2022,04,27,12,26,8.90
2022,04,27,12,27,9.00
2022,04,27,12,28,9.00
2022,04,27,12,29,9.00
2022,04,27,12,30,9.10
2022,04,27,12,31,9.10
2022,04,27,12,32,9.10
2022,04,27,12,33,9.10
2022,04,27,12,34,9.10
2022,04,27,12,35,9.10
2022,04,27,12,36,9.20
2022,04,27,12,37,9.20
2022,04,27,12,38,9.30
2022,04,27,12,39,9.30
2022,04,27,12,40,9.30
2022,04,27,12,41,9.30
2022,04,27,12,42,9.30
2022,04,27,12,43,9.30
2022,04,27,12,44,9.30
2022,04,27,12,45,9.30
2022,04,27,12,46,9.30
2022,04,27,12,47,9.30
2022,04,27,12,48,9.30
2022,04,27,12,49,9.30
2022,04,27,12,50,9.20
2022,04,27,12,51,9.20
2022,04,27,12,52,9.20
2022,04,27,12,53,9.30
2022,04,27,12,54,9.30
2022,04,27,12,55,9.30
2022,04,27,12,56,9.30
2022,04,27,12,57,9.30
2022,04,27,12,58,9.30
2022,04,27,12,59,9.30
2022,04,27,13,00,9.30
2022,04,27,13,01,9.30
2022,04,27,13,02,9.40
2022,04,27,13,03,9.40
2022,04,27,13,04,9.40
2022,04,27,13,05,9.40
2022,04,27,13,06,9.40
2022,04,27,13,07,9.40
2022,04,27,13,08,9.40
2022,04,27,13,09,9.40
2022,04,27,13,10,9.50
2022,04,27,13,11,9.60
2022,04,27,13,12,9.60
2022,04,27,13,13,9.50
2022,04,27,13,14,9.50
2022,04,27,13,15,9.50
2022,04,27,13,16,9.50
2022,04,27,13,17,9.40
2022,04,27,13,18,9.40
2022,04,27,13,19,9.50
2022,04,27,13,20,9.50
2022,04,27,13,21,9.50
2022,04,27,13,22,9.60
2022,04,27,13,23,9.50
2022,04,27,13,24,9.40
2022,04,27,13,25,9.40
2022,04,27,13,26,9.40
2022,04,27,13,27,9.40
2022,04,27,13,28,9.40
2022,04,27,13,29,9.40
2022,04,27,13,30,9.40
2022,04,27,13,31,9.40
2022,04,27,13,32,9.40
2022,04,27,13,33,9.40
2022,04,27,13,34,9.40
2022,04,27,13,35,9.50
2022,04,27,13,36,9.60
2022,04,27,13,37,9.70
2022,04,27,13,38,9.80
2022,04,27,13,39,9.90
2022,04,27,13,40,9.80
2022,04,27,13,41,9.80
2022,04,27,13,42,9.70
2022,04,27,13,43,9.70
2022,04,27,13,44,9.60
2022,04,27,13,45,9.60
2022,04,27,13,46,9.60
2022,04,27,13,47,9.60
2022,04,27,13,48,9.60
2022,04,27,13,49,9.60
2022,04,27,13,50,9.60
2022,04,27,13,51,9.60
2022,04,27,13,52,9.60
2022,04,27,13,53,9.50
2022,04,27,13,54,9.60
2022,04,27,13,55,9.60
2022,04,27,13,56,9.60
2022,04,27,13,57,9.60
2022,04,27,13,58,9.60
2022,04,27,13,59,9.60
2022,04,27,14,00,9.60
2022,04,27,14,01,9.60
2022,04,27,14,02,9.70
2022,04,27,14,03,9.70
2022,04,27,14,04,9.80
2022,04,27,14,05,9.80
2022,04,27,14,06,9.80
2022,04,27,14,07,9.70
2022,04,27,14,08,9.60
2022,04,27,14,09,9.50
2022,04,27,14,10,9.40
2022,04,27,14,11,9.40
2022,04,27,14,12,9.40
2022,04,27,14,13,9.40
2022,04,27,14,14,9.50
2022,04,27,14,15,9.50
2022,04,27,14,16,9.60
2022,04,27,14,17,9.70
2022,04,27,14,18,9.70
2022,04,27,14,19,9.60
2022,04,27,14,20,9.60
2022,04,27,14,21,9.50
2022,04,27,14,22,9.60
2022,04,27,14,23,9.70
2022,04,27,14,24,9.70
2022,04,27,14,25,9.80
2022,04,27,14,26,9.80
2022,04,27,14,27,9.80
2022,04,27,14,28,9.80
2022,04,27,14,29,9.80
2022,04,27,14,30,9.70
2022,04,27,14,31,9.70
2022,04,27,14,32,9.70
2022,04,27,14,33,9.70
2022,04,27,14,34,9.60
2022,04,27,14,35,9.60
2022,04,27,14,36,9.60
2022,04,27,14,37,9.60
2022,04,27,14,38,9.60
2022,04,27,14,39,9.70
2022,04,27,14,40,9.70
2022,04,27,14,41,9.70
2022,04,27,14,42,9.60
2022,04,27,14,43,9.50
2022,04,27,14,44,9.50
2022,04,27,14,45,9.50
2022,04,27,14,46,9.50
2022,04,27,14,47,9.40
2022,04,27,14,48,9.50
2022,04,27,14,49,9.50
2022,04,27,14,50,9.50
2022,04,27,14,51,9.50
2022,04,27,14,52,9.50
2022,04,27,14,53,9.50
2022,04,27,14,54,9.50
2022,04,27,14,55,9.60
2022,04,27,14,56,9.70
2022,04,27,14,57,9.80
2022,04,27,14,58,9.90
2022,04,27,14,59,10.00
2022,04,27,15,00,10.10
2022,04,27,15,01,10.20
2022,04,27,15,02,10.20
2022,04,27,15,03,10.30
2022,04,27,15,04,10.30
2022,04,27,15,05,10.30
2022,04,27,15,06,10.20
2022,04,27,15,07,10.10
2022,04,27,15,08,10.00
2022,04,27,15,09,9.90
2022,04,27,15,10,9.80
2022,04,27,15,11,9.70
2022,04,27,15,12,9.70
2022,04,27,15,13,9.60
2022,04,27,15,14,9.50
2022,04,27,15,15,9.40
2022,04,27,15,16,9.40
2022,04,27,15,17,9.40
2022,04,27,15,18,9.40
2022,04,27,15,19,9.40
2022,04,27,15,20,9.50
2022,04,27,15,21,9.50
2022,04,27,15,22,9.60
2022,04,27,15,23,9.70
2022,04,27,15,24,9.70
2022,04,27,15,25,9.60
2022,04,27,15,26,9.60
2022,04,27,15,27,9.60
2022,04,27,15,28,9.50
2022,04,27,15,29,9.50
2022,04,27,15,30,9.50
2022,04,27,15,31,9.40
2022,04,27,15,32,9.40
2022,04,27,15,33,9.50
2022,04,27,15,34,9.50
2022,04,27,15,35,9.50
2022,04,27,15,36,9.60
2022,04,27,15,37,9.60
2022,04,27,15,38,9.60
2022,04,27,15,39,9.70
2022,04,27,15,40,9.70
2022,04,27,15,41,9.80
2022,04,27,15,42,9.80
2022,04,27,15,43,9.80
2022,04,27,15,44,9.90
2022,04,27,15,45,10.00
2022,04,27,15,46,10.00
2022,04,27,15,47,10.10
2022,04,27,15,48,10.20
2022,04,27,15,49,10.30
2022,04,27,15,50,10.30
2022,04,27,15,51,10.30
2022,04,27,15,52,10.30
2022,04,27,15,53,10.20
2022,04,27,15,54,10.10
2022,04,27,15,55,10.00
2022,04,27,15,56,10.00
2022,04,27,15,57,10.00
2022,04,27,15,58,10.00
2022,04,27,15,59,10.10
2022,04,27,16,00,10.10
2022,04,27,16,01,10.20
2022,04,27,16,02,10.20
2022,04,27,16,03,10.20
2022,04,27,16,04,10.20
2022,04,27,16,05,10.20
2022,04,27,16,06,10.20
2022,04,27,16,07,10.10
2022,04,27,16,08,10.10
2022,04,27,16,09,10.10
2022,04,27,16,10,10.10
2022,04,27,16,11,10.00
2022,04,27,16,12,10.10
2022,04,27,16,13,10.10
2022,04,27,16,14,10.20
2022,04,27,16,15,10.20
2022,04,27,16,16,10.30
2022,04,27,16,17,10.30
2022,04,27,16,18,10.30
2022,04,27,16,19,10.30
2022,04,27,16,20,10.30
2022,04,27,16,21,10.30
2022,04,27,16,22,10.40
2022,04,27,16,23,10.50
2022,04,27,16,24,10.60
2022,04,27,16,25,10.60
2022,04,27,16,26,10.60
2022,04,27,16,27,10.60
2022,04,27,16,28,10.60
2022,04,27,16,29,10.70
2022,04,27,16,30,10.70
2022,04,27,16,31,10.70
2022,04,27,16,32,10.80
2022,04,27,16,33,10.80
2022,04,27,16,34,10.80
2022,04,27,16,35,10.80
2022,04,27,16,36,10.80
2022,04,27,16,37,10.80
2022,04,27,16,38,10.80
2022,04,27,16,39,10.70
2022,04,27,16,40,10.70
2022,04,27,16,41,10.80
2022,04,27,16,42,10.80
2022,04,27,16,43,10.80
2022,04,27,16,44,10.70
2022,04,27,16,45,10.70
2022,04,27,16,46,10.70
2022,04,27,16,47,10.80
2022,04,27,16,48,10.80
2022,04,27,16,49,10.90
2022,04,27,16,50,10.90
2022,04,27,16,51,10.90
2022,04,27,16,52,10.90
2022,04,27,16,53,10.90
2022,04,27,16,54,10.90
2022,04,27,16,55,10.80
2022,04,27,16,56,10.70
2022,04,27,16,57,10.70
2022,04,27,16,58,10.70
2022,04,27,16,59,10.60
2022,04,27,17,00,10.60
2022,04,27,17,01,10.50
2022,04,27,17,02,10.50
2022,04,27,17,03,10.40
2022,04,27,17,04,10.40
2022,04,27,17,05,10.30
2022,04,27,17,06,10.30
2022,04,27,17,07,10.30
2022,04,27,17,08,10.20
2022,04,27,17,09,10.30
2022,04,27,17,10,10.20
2022,04,27,17,11,10.20
2022,04,27,17,12,10.20
2022,04,27,17,13,10.20
2022,04,27,17,14,10.20
2022,04,27,17,15,10.20
2022,04,27,17,16,10.20
2022,04,27,17,17,10.20
2022,04,27,17,18,10.20
2022,04,27,17,19,10.20
2022,04,27,17,20,10.20
2022,04,27,17,21,10.20
2022,04,27,17,22,10.20
2022,04,27,17,23,10.10
2022,04,27,17,24,10.10
2022,04,27,17,25,10.00
2022,04,27,17,26,10.10
2022,04,27,17,27,10.00
2022,04,27,17,28,10.00
2022,04,27,17,29,10.10
2022,04,27,17,30,10.10
2022,04,27,17,31,10.10
2022,04,27,17,32,10.10
2022,04,27,17,33,10.10
2022,04,27,17,34,10.10
2022,04,27,17,35,10.20
2022,04,27,17,36,10.20
2022,04,27,17,37,10.20
2022,04,27,17,38,10.30
2022,04,27,17,39,10.30
2022,04,27,17,40,10.40
2022,04,27,17,41,10.40
2022,04,27,17,42,10.40
2022,04,27,17,43,10.40
2022,04,27,17,44,10.50
2022,04,27,17,45,10.50
2022,04,27,17,46,10.50
2022,04,27,17,47,10.50
2022,04,27,17,48,10.60
2022,04,27,17,49,10.60
2022,04,27,17,50,10.70
2022,04,27,17,51,10.70
2022,04,27,17,52,10.80
2022,04,27,17,53,10.70
2022,04,27,17,54,10.80
2022,04,27,17,55,10.80
2022,04,27,17,56,10.90
2022,04,27,17,57,10.90
2022,04,27,17,58,10.90
2022,04,27,17,59,10.80
2022,04,27,18,00,10.80